,,,PA_Meas_PMT16A,,PR_Meas_QMR101_102,,RH_Meas_QMH101,,SR_Meas_QMS101,,TA_Meas_QMH101,,GenWind,,GenWind,
date,time,status,PA,status,PR,status,RH,status,SR,status,TA,status,DirAvg,status,SpdAvg,
2010-05-18, 00:00:04,VALID,1003.79,VALID,0,VALID,96.9783,VALID,0,VALID,25.4363,VALID,356,VALID,0,
2010-05-18, 00:01:04,VALID,1003.8,VALID,0,VALID,96.9936,VALID,0,VALID,25.4383,VALID,356,VALID,0.0203125,
2010-05-18, 00:02:04,VALID,1003.78,VALID,0,VALID,96.9631,VALID,0,VALID,25.4169,VALID,356,VALID,0.285156,
2010-05-18, 00:03:04,VALID,1003.75,VALID,0,VALID,96.9707,VALID,0,VALID,25.4169,VALID,356,VALID,0.485547,
2010-05-18, 00:04:04,VALID,1003.73,VALID,0,VALID,96.986,VALID,0,VALID,25.3993,VALID,356,VALID,0.378125,
2010-05-18, 00:05:04,VALID,1003.74,VALID,0,VALID,96.9631,VALID,0,VALID,25.3584,VALID,356,VALID,0.483203,
2010-05-18, 00:06:04,VALID,1003.71,VALID,0,VALID,96.9707,VALID,0,VALID,25.3974,VALID,356,VALID,0.496484,
2010-05-18, 00:07:04,VALID,1003.73,VALID,0,VALID,96.9631,VALID,0,VALID,25.4363,VALID,349,VALID,0.267188,
2010-05-18, 00:08:04,VALID,1003.74,VALID,0,VALID,97.0088,VALID,0,VALID,25.4772,VALID,349,VALID,0.259766,
2010-05-18, 00:09:04,VALID,1003.73,VALID,0,VALID,97.0394,VALID,0,VALID,25.4772,VALID,349,VALID,0.120312,
2010-05-18, 00:10:04,VALID,1003.68,VALID,0,VALID,97.0546,VALID,0,VALID,25.4753,VALID,317,VALID,0.130469,
2010-05-18, 00:11:04,VALID,1003.67,VALID,0,VALID,97.047,VALID,0,VALID,25.4948,VALID,318,VALID,0.20625,
2010-05-18, 00:12:04,VALID,1003.65,VALID,0,VALID,97.0775,VALID,0,VALID,25.5357,VALID,318,VALID,0.160938,
2010-05-18, 00:13:04,VALID,1003.65,VALID,0,VALID,97.0699,VALID,0,VALID,25.5357,VALID,325,VALID,0.224609,
2010-05-18, 00:14:04,VALID,1003.67,VALID,0,VALID,97.0699,VALID,0,VALID,25.5142,VALID,350,VALID,0.35625,
2010-05-18, 00:15:04,VALID,1003.66,VALID,0,VALID,97.047,VALID,0,VALID,25.5357,VALID,350,VALID,0.384766,
2010-05-18, 00:16:04,VALID,1003.64,VALID,0,VALID,97.0546,VALID,0,VALID,25.5142,VALID,340,VALID,0.723828,
2010-05-18, 00:17:04,VALID,1003.62,VALID,0,VALID,97.0317,VALID,0,VALID,25.5337,VALID,351,VALID,0.380859,
2010-05-18, 00:18:04,VALID,1003.63,VALID,0,VALID,97.0317,VALID,0,VALID,25.5551,VALID,1,VALID,0.442187,
2010-05-18, 00:19:04,VALID,1003.59,VALID,0,VALID,97.0317,VALID,0,VALID,25.5746,VALID,354,VALID,0.311719,
2010-05-18, 00:20:04,VALID,1003.59,VALID,0,VALID,96.986,VALID,0,VALID,25.5727,VALID,354,VALID,0.08125,
2010-05-18, 00:21:04,VALID,1003.58,VALID,0,VALID,96.9936,VALID,0,VALID,25.5727,VALID,354,VALID,0.0953125,
2010-05-18, 00:22:04,VALID,1003.56,VALID,0,VALID,96.9326,VALID,0,VALID,25.5727,VALID,319,VALID,0.0234375,
2010-05-18, 00:23:04,VALID,1003.58,VALID,0,VALID,96.9249,VALID,0,VALID,25.5727,VALID,319,VALID,0.127344,
2010-05-18, 00:24:04,VALID,1003.55,VALID,0,VALID,96.9097,VALID,0,VALID,25.5921,VALID,329,VALID,0.216797,
2010-05-18, 00:25:04,VALID,1003.54,VALID,0,VALID,96.902,VALID,0,VALID,25.5921,VALID,329,VALID,0.119141,
2010-05-18, 00:26:04,VALID,1003.54,VALID,0,VALID,96.902,VALID,0,VALID,25.6116,VALID,329,VALID,0.282422,
2010-05-18, 00:27:04,VALID,1003.51,VALID,0,VALID,96.8868,VALID,0,VALID,25.6116,VALID,322,VALID,0.344922,
2010-05-18, 00:28:04,VALID,1003.51,VALID,0,VALID,96.8639,VALID,0,VALID,25.6311,VALID,322,VALID,0.028125,
2010-05-18, 00:29:04,VALID,1003.51,VALID,0,VALID,96.841,VALID,0,VALID,25.6506,VALID,325,VALID,0.328516,
2010-05-18, 00:30:04,VALID,1003.48,VALID,0,VALID,96.841,VALID,0,VALID,25.672,VALID,332,VALID,0.00195313,
2010-05-18, 00:31:04,VALID,1003.45,VALID,0,VALID,96.8181,VALID,0,VALID,25.672,VALID,334,VALID,0.351563,
2010-05-18, 00:32:04,VALID,1003.42,VALID,0,VALID,96.78,VALID,0,VALID,25.672,VALID,337,VALID,0.0417969,
2010-05-18, 00:33:04,VALID,1003.39,VALID,0,VALID,96.7647,VALID,0,VALID,25.6915,VALID,337,VALID,0,
2010-05-18, 00:34:04,VALID,1003.38,VALID,0,VALID,96.7342,VALID,0,VALID,25.7109,VALID,337,VALID,0,
2010-05-18, 00:35:04,VALID,1003.35,VALID,0,VALID,96.7189,VALID,0,VALID,25.7109,VALID,337,VALID,0,
2010-05-18, 00:36:04,VALID,1003.32,VALID,0,VALID,96.6732,VALID,0,VALID,25.7324,VALID,338,VALID,0.153906,
2010-05-18, 00:37:04,VALID,1003.31,VALID,0,VALID,96.6579,VALID,0,VALID,25.709,VALID,344,VALID,0.588281,
2010-05-18, 00:38:04,VALID,1003.32,VALID,0,VALID,96.6579,VALID,0,VALID,25.7499,VALID,340,VALID,0.466406,
2010-05-18, 00:39:04,VALID,1003.28,VALID,0,VALID,96.5969,VALID,0,VALID,25.7304,VALID,345,VALID,0.358594,
2010-05-18, 00:40:04,VALID,1003.29,VALID,0,VALID,96.5511,VALID,0,VALID,25.6895,VALID,345,VALID,0.444531,
2010-05-18, 00:41:04,VALID,1003.29,VALID,0,VALID,96.5359,VALID,0,VALID,25.6895,VALID,347,VALID,0.289844,
2010-05-18, 00:42:04,VALID,1003.26,VALID,0,VALID,96.4977,VALID,0,VALID,25.6895,VALID,347,VALID,0.433203,
2010-05-18, 00:43:04,VALID,1003.25,VALID,0,VALID,96.4596,VALID,0,VALID,25.6506,VALID,343,VALID,0.730859,
2010-05-18, 00:44:04,VALID,1003.24,VALID,0,VALID,96.4519,VALID,0,VALID,25.6525,VALID,339,VALID,0.460938,
2010-05-18, 00:45:04,VALID,1003.22,VALID,0,VALID,96.429,VALID,0,VALID,25.6097,VALID,341,VALID,0.59375,
2010-05-18, 00:46:04,VALID,1003.17,VALID,0,VALID,96.3909,VALID,0,VALID,25.5921,VALID,347,VALID,0.473828,
2010-05-18, 00:47:04,VALID,1003.14,VALID,0,VALID,96.4138,VALID,0,VALID,25.5318,VALID,349,VALID,0.801562,
2010-05-18, 00:48:04,VALID,1003.11,VALID,0,VALID,96.4748,VALID,0,VALID,25.5318,VALID,341,VALID,0.922656,
2010-05-18, 00:49:04,VALID,1003.09,VALID,0,VALID,96.5816,VALID,0,VALID,25.5727,VALID,348,VALID,0.673828,
2010-05-18, 00:50:04,VALID,1003.1,VALID,0,VALID,96.6045,VALID,0,VALID,25.5532,VALID,348,VALID,0.690234,
2010-05-18, 00:51:05,VALID,1003.1,VALID,0,VALID,96.6198,VALID,0,VALID,25.5318,VALID,348,VALID,0.507813,
2010-05-18, 00:52:05,VALID,1003.08,VALID,0,VALID,96.6121,VALID,0,VALID,25.5337,VALID,348,VALID,0.608203,
2010-05-18, 00:53:05,VALID,1003.09,VALID,0,VALID,96.6579,VALID,0,VALID,25.5142,VALID,12,VALID,0.424219,
2010-05-18, 00:54:05,VALID,1003.08,VALID,0,VALID,96.7037,VALID,0,VALID,25.4928,VALID,12,VALID,0.335156,
2010-05-18, 00:55:05,VALID,1003.04,VALID,0,VALID,96.7495,VALID,0,VALID,25.5123,VALID,11,VALID,0.410937,
2010-05-18, 00:56:05,VALID,1003.02,VALID,0,VALID,96.7876,VALID,0.100563,VALID,25.5142,VALID,11,VALID,0.596094,
2010-05-18, 00:57:05,VALID,1003.01,VALID,0,VALID,96.8258,VALID,0,VALID,25.5513,VALID,341,VALID,1.00391,
2010-05-18, 00:58:05,VALID,1003,VALID,0,VALID,96.8639,VALID,0,VALID,25.5921,VALID,360,VALID,0.825391,
2010-05-18, 00:59:05,VALID,1002.99,VALID,0,VALID,96.8639,VALID,0,VALID,25.5902,VALID,360,VALID,0.515234,
2010-05-18, 01:00:05,VALID,1002.99,VALID,0,VALID,96.841,VALID,0,VALID,25.5921,VALID,360,VALID,0.707031,
2010-05-18, 01:01:05,VALID,1002.98,VALID,0,VALID,96.8105,VALID,0,VALID,25.5727,VALID,360,VALID,0.586328,
2010-05-18, 01:02:05,VALID,1002.97,VALID,0,VALID,96.7647,VALID,0,VALID,25.5727,VALID,1,VALID,0.655469,
2010-05-18, 01:03:05,VALID,1002.95,VALID,0,VALID,96.8181,VALID,0,VALID,25.6915,VALID,15,VALID,0.421875,
2010-05-18, 01:04:05,VALID,1002.93,VALID,0,VALID,96.8486,VALID,0,VALID,25.7499,VALID,11,VALID,0.978516,
2010-05-18, 01:05:05,VALID,1002.91,VALID,0,VALID,96.8486,VALID,0,VALID,25.8064,VALID,357,VALID,0.552734,
2010-05-18, 01:06:05,VALID,1002.89,VALID,0,VALID,96.8029,VALID,0,VALID,25.8668,VALID,355,VALID,0.449219,
2010-05-18, 01:07:05,VALID,1002.9,VALID,0,VALID,96.7189,VALID,0,VALID,25.8863,VALID,360,VALID,0.756641,
2010-05-18, 01:08:05,VALID,1002.88,VALID,0,VALID,96.6503,VALID,0,VALID,25.9622,VALID,9,VALID,0.661719,
2010-05-18, 01:09:05,VALID,1002.9,VALID,0,VALID,96.4825,VALID,0,VALID,26.0031,VALID,9,VALID,0.551172,
2010-05-18, 01:10:05,VALID,1002.88,VALID,0,VALID,96.2536,VALID,0,VALID,26.0012,VALID,14,VALID,0.768359,
2010-05-18, 01:11:05,VALID,1002.89,VALID,0,VALID,96.1086,VALID,0,VALID,26.0616,VALID,41,VALID,0.78125,
2010-05-18, 01:12:05,VALID,1002.88,VALID,0,VALID,95.9408,VALID,0,VALID,26.0985,VALID,27,VALID,0.274609,
2010-05-18, 01:13:05,VALID,1002.9,VALID,0,VALID,95.6814,VALID,0,VALID,26.1395,VALID,26,VALID,0.837109,
2010-05-18, 01:14:05,VALID,1002.88,VALID,0,VALID,95.506,VALID,0,VALID,26.1765,VALID,21,VALID,0.427344,
2010-05-18, 01:15:05,VALID,1002.88,VALID,0,VALID,95.3,VALID,0,VALID,26.2349,VALID,19,VALID,0.405469,
2010-05-18, 01:16:05,VALID,1002.85,VALID,0,VALID,94.9948,VALID,0,VALID,26.2329,VALID,356,VALID,0.533984,
2010-05-18, 01:17:05,VALID,1002.86,VALID,0,VALID,94.6134,VALID,0,VALID,26.2719,VALID,6,VALID,0.440234,
2010-05-18, 01:18:05,VALID,1002.85,VALID,0,VALID,94.4074,VALID,0,VALID,26.3108,VALID,6,VALID,0.370313,
2010-05-18, 01:19:05,VALID,1002.85,VALID,0,VALID,94.2853,VALID,0,VALID,26.3108,VALID,5,VALID,0.172656,
2010-05-18, 01:20:05,VALID,1002.87,VALID,0,VALID,94.0794,VALID,0,VALID,26.2913,VALID,5,VALID,0.352344,
2010-05-18, 01:21:05,VALID,1002.86,VALID,0,VALID,93.9573,VALID,0,VALID,26.2933,VALID,310,VALID,0.101953,
2010-05-18, 01:22:05,VALID,1002.85,VALID,0,VALID,93.6216,VALID,0.100563,VALID,26.2524,VALID,310,VALID,0,
2010-05-18, 01:23:05,VALID,1002.85,VALID,0,VALID,93.0342,VALID,0,VALID,26.1745,VALID,299,VALID,0.519141,
2010-05-18, 01:24:05,VALID,1002.82,VALID,0,VALID,93.6064,VALID,0,VALID,26.0966,VALID,253,VALID,0.0667969,
2010-05-18, 01:25:05,VALID,1002.81,VALID,0,VALID,93.9039,VALID,0,VALID,26.0381,VALID,253,VALID,0.0691406,
2010-05-18, 01:26:05,VALID,1002.82,VALID,0,VALID,94.2319,VALID,0,VALID,25.9408,VALID,253,VALID,0.142578,
2010-05-18, 01:27:05,VALID,1002.82,VALID,0,VALID,94.5676,VALID,0,VALID,25.9038,VALID,253,VALID,0.0234375,
2010-05-18, 01:28:05,VALID,1002.84,VALID,0,VALID,94.827,VALID,0,VALID,25.8648,VALID,253,VALID,0.0121094,
2010-05-18, 01:29:05,VALID,1002.87,VALID,0,VALID,95.0101,VALID,0,VALID,25.8064,VALID,253,VALID,0.00429688,
2010-05-18, 01:30:05,VALID,1002.83,VALID,0,VALID,95.1855,VALID,0,VALID,25.7674,VALID,253,VALID,0,
2010-05-18, 01:31:05,VALID,1002.85,VALID,0,VALID,95.4068,VALID,0,VALID,25.748,VALID,253,VALID,0.207813,
2010-05-18, 01:32:05,VALID,1002.83,VALID,0,VALID,95.5288,VALID,0,VALID,25.709,VALID,253,VALID,0,
2010-05-18, 01:33:05,VALID,1002.83,VALID,0,VALID,95.6585,VALID,0,VALID,25.709,VALID,253,VALID,0.395703,
2010-05-18, 01:34:05,VALID,1002.84,VALID,0,VALID,95.9027,VALID,0,VALID,25.7285,VALID,31,VALID,0.89375,
2010-05-18, 01:35:05,VALID,1002.82,VALID,0,VALID,96.0934,VALID,0,VALID,25.8064,VALID,25,VALID,1.06719,
2010-05-18, 01:36:05,VALID,1002.8,VALID,0,VALID,96.2078,VALID,0,VALID,25.9038,VALID,9,VALID,0.666797,
2010-05-18, 01:37:05,VALID,1002.8,VALID,0,VALID,96.0476,VALID,0,VALID,25.9232,VALID,6,VALID,0.487891,
2010-05-18, 01:38:05,VALID,1002.8,VALID,0,VALID,95.895,VALID,0,VALID,25.9038,VALID,6,VALID,0.587109,
2010-05-18, 01:39:05,VALID,1002.75,VALID,0,VALID,95.8264,VALID,0,VALID,25.9232,VALID,2,VALID,0.563281,
2010-05-18, 01:40:05,VALID,1002.78,VALID,0,VALID,95.689,VALID,0,VALID,25.9038,VALID,2,VALID,0.892187,
2010-05-18, 01:41:05,VALID,1002.74,VALID,0,VALID,95.6585,VALID,0,VALID,25.9038,VALID,5,VALID,0.720312,
2010-05-18, 01:42:05,VALID,1002.73,VALID,0,VALID,95.7119,VALID,0,VALID,25.9232,VALID,5,VALID,0.885156,
2010-05-18, 01:43:05,VALID,1002.68,VALID,0,VALID,95.8111,VALID,0,VALID,25.9817,VALID,10,VALID,1.02852,
2010-05-18, 01:44:05,VALID,1002.66,VALID,0,VALID,95.7424,VALID,0,VALID,26.0187,VALID,1,VALID,0.956641,
2010-05-18, 01:45:05,VALID,1002.69,VALID,0,VALID,95.5822,VALID,0.100563,VALID,26.1375,VALID,360,VALID,1.02773,
2010-05-18, 01:46:05,VALID,1002.67,VALID,0,VALID,95.2923,VALID,0.100563,VALID,26.192,VALID,17,VALID,0.683984,
2010-05-18, 01:47:05,VALID,1002.69,VALID,0,VALID,94.8651,VALID,0.100563,VALID,26.2739,VALID,9,VALID,0.700781,
2010-05-18, 01:48:05,VALID,1002.69,VALID,0,VALID,94.6286,VALID,0.100563,VALID,26.2524,VALID,10,VALID,0.704687,
2010-05-18, 01:49:05,VALID,1002.69,VALID,0,VALID,94.6286,VALID,0.100563,VALID,26.2309,VALID,2,VALID,0.449609,
2010-05-18, 01:50:05,VALID,1002.73,VALID,0,VALID,94.5218,VALID,0.100563,VALID,26.2719,VALID,1,VALID,0.560938,
2010-05-18, 01:51:05,VALID,1002.73,VALID,0,VALID,94.3464,VALID,0.100563,VALID,26.2504,VALID,2,VALID,0.541016,
2010-05-18, 01:52:05,VALID,1002.72,VALID,0,VALID,94.3616,VALID,0.100563,VALID,26.2933,VALID,20,VALID,0.407813,
2010-05-18, 01:53:05,VALID,1002.71,VALID,0,VALID,94.3158,VALID,0,VALID,26.2933,VALID,5,VALID,0.553516,
2010-05-18, 01:54:05,VALID,1002.71,VALID,0,VALID,94.0336,VALID,0.100563,VALID,26.2719,VALID,5,VALID,0.699609,
2010-05-18, 01:55:05,VALID,1002.7,VALID,0,VALID,94.1099,VALID,0.100563,VALID,26.2134,VALID,5,VALID,0.566016,
2010-05-18, 01:56:05,VALID,1002.76,VALID,0,VALID,94.2319,VALID,0.100563,VALID,26.1959,VALID,358,VALID,0.805469,
2010-05-18, 01:57:05,VALID,1002.74,VALID,0,VALID,94.415,VALID,0.100563,VALID,26.155,VALID,4,VALID,0.546094,
2010-05-18, 01:58:05,VALID,1002.75,VALID,0,VALID,94.5371,VALID,0.100563,VALID,26.1355,VALID,15,VALID,0.735547,
2010-05-18, 01:59:05,VALID,1002.71,VALID,0,VALID,94.7202,VALID,0.100563,VALID,26.0966,VALID,1,VALID,0.75625,
2010-05-18, 02:00:05,VALID,1002.71,VALID,0,VALID,94.8804,VALID,0,VALID,26.118,VALID,349,VALID,0.552344,
2010-05-18, 02:01:05,VALID,1002.73,VALID,0,VALID,94.7888,VALID,0,VALID,26.0576,VALID,351,VALID,0.567187,
2010-05-18, 02:02:05,VALID,1002.74,VALID,0,VALID,94.8956,VALID,0,VALID,26.0791,VALID,11,VALID,0.619531,
2010-05-18, 02:03:05,VALID,1002.74,VALID,0,VALID,95.0253,VALID,0,VALID,26.0985,VALID,354,VALID,0.447266,
2010-05-18, 02:04:05,VALID,1002.75,VALID,0,VALID,95.0024,VALID,0,VALID,26.1765,VALID,27,VALID,0.39375,
2010-05-18, 02:05:05,VALID,1002.77,VALID,0,VALID,94.8194,VALID,0,VALID,26.2349,VALID,15,VALID,0.469922,
2010-05-18, 02:06:05,VALID,1002.76,VALID,0,VALID,94.4989,VALID,0,VALID,26.2739,VALID,19,VALID,0.235156,
2010-05-18, 02:07:05,VALID,1002.76,VALID,0,VALID,94.3311,VALID,0,VALID,26.3128,VALID,41,VALID,0.789844,
2010-05-18, 02:08:05,VALID,1002.79,VALID,0,VALID,94.148,VALID,0,VALID,26.3518,VALID,20,VALID,0.666406,
2010-05-18, 02:09:05,VALID,1002.76,VALID,0,VALID,93.6369,VALID,0,VALID,26.3907,VALID,20,VALID,0.379687,
2010-05-18, 02:10:05,VALID,1002.77,VALID,0,VALID,93.1944,VALID,0,VALID,26.3713,VALID,20,VALID,0.5125,
2010-05-18, 02:11:05,VALID,1002.8,VALID,0,VALID,93.2325,VALID,0,VALID,26.3518,VALID,357,VALID,0.682422,
2010-05-18, 02:12:05,VALID,1002.81,VALID,0,VALID,91.9967,VALID,0,VALID,26.3343,VALID,360,VALID,0.492578,
2010-05-18, 02:13:05,VALID,1002.79,VALID,0,VALID,93.1334,VALID,0,VALID,26.2564,VALID,360,VALID,0.179688,
2010-05-18, 02:14:05,VALID,1002.76,VALID,0,VALID,93.7742,VALID,0,VALID,26.2154,VALID,360,VALID,0.363672,
2010-05-18, 02:15:05,VALID,1002.78,VALID,0,VALID,94.0794,VALID,0,VALID,26.2134,VALID,360,VALID,0.232031,
2010-05-18, 02:16:05,VALID,1002.76,VALID,0,VALID,94.0488,VALID,0,VALID,26.194,VALID,360,VALID,0.05625,
2010-05-18, 02:17:05,VALID,1002.75,VALID,0,VALID,94.0794,VALID,0.100563,VALID,26.1745,VALID,360,VALID,0.0113281,
2010-05-18, 02:18:05,VALID,1002.74,VALID,0,VALID,94.2777,VALID,0.100563,VALID,26.155,VALID,10,VALID,0.615625,
2010-05-18, 02:19:05,VALID,1002.74,VALID,0,VALID,94.4532,VALID,0.100563,VALID,26.194,VALID,8,VALID,0.328906,
2010-05-18, 02:20:05,VALID,1002.74,VALID,0,VALID,94.3006,VALID,0.100563,VALID,26.1725,VALID,8,VALID,0.296094,
2010-05-18, 02:21:05,VALID,1002.72,VALID,0,VALID,94.4455,VALID,0.100563,VALID,26.194,VALID,1,VALID,0.453516,
2010-05-18, 02:22:05,VALID,1002.71,VALID,0,VALID,94.7278,VALID,0.100563,VALID,26.2719,VALID,30,VALID,0.173047,
2010-05-18, 02:23:05,VALID,1002.73,VALID,0,VALID,94.2777,VALID,0,VALID,26.2719,VALID,10,VALID,0.351953,
2010-05-18, 02:24:05,VALID,1002.73,VALID,0,VALID,93.0495,VALID,0.100563,VALID,26.2329,VALID,10,VALID,0.375,
2010-05-18, 02:25:05,VALID,1002.74,VALID,0,VALID,92.3323,VALID,0,VALID,26.116,VALID,10,VALID,0.620313,
2010-05-18, 02:26:05,VALID,1002.75,VALID,0,VALID,93.2554,VALID,0.100563,VALID,26.0381,VALID,10,VALID,0.378516,
2010-05-18, 02:27:05,VALID,1002.72,VALID,0,VALID,93.7437,VALID,0.100563,VALID,25.9408,VALID,10,VALID,0.392188,
2010-05-18, 02:28:05,VALID,1002.73,VALID,0,VALID,94.148,VALID,0,VALID,25.8434,VALID,10,VALID,0,
2010-05-18, 02:29:05,VALID,1002.7,VALID,0,VALID,94.4608,VALID,0.100563,VALID,25.785,VALID,10,VALID,0,
2010-05-18, 02:30:05,VALID,1002.7,VALID,0,VALID,94.7125,VALID,0,VALID,25.7071,VALID,10,VALID,0,
2010-05-18, 02:31:05,VALID,1002.68,VALID,0,VALID,94.9567,VALID,0,VALID,25.6486,VALID,10,VALID,0.147656,
2010-05-18, 02:32:05,VALID,1002.71,VALID,0,VALID,95.155,VALID,0,VALID,25.6116,VALID,10,VALID,0,
2010-05-18, 02:33:05,VALID,1002.69,VALID,0,VALID,95.3915,VALID,0,VALID,25.5921,VALID,10,VALID,0.135547,
2010-05-18, 02:34:05,VALID,1002.71,VALID,0,VALID,95.5594,VALID,0,VALID,25.5318,VALID,10,VALID,0,
2010-05-18, 02:35:05,VALID,1002.72,VALID,0,VALID,95.6585,VALID,0.100563,VALID,25.5123,VALID,10,VALID,0,
2010-05-18, 02:36:05,VALID,1002.72,VALID,0,VALID,95.7577,VALID,0,VALID,25.4734,VALID,10,VALID,0.291797,
2010-05-18, 02:37:05,VALID,1002.71,VALID,0,VALID,95.8493,VALID,0,VALID,25.4325,VALID,10,VALID,0,
2010-05-18, 02:38:05,VALID,1002.71,VALID,0,VALID,95.9789,VALID,0,VALID,25.4558,VALID,10,VALID,0,
2010-05-18, 02:39:05,VALID,1002.74,VALID,0,VALID,96.0552,VALID,0,VALID,25.3955,VALID,10,VALID,0,
2010-05-18, 02:40:05,VALID,1002.73,VALID,0,VALID,96.1697,VALID,0,VALID,25.376,VALID,10,VALID,0,
2010-05-18, 02:41:05,VALID,1002.76,VALID,0,VALID,96.2612,VALID,0,VALID,25.376,VALID,10,VALID,0.285156,
2010-05-18, 02:42:05,VALID,1002.74,VALID,0,VALID,96.3604,VALID,0,VALID,25.376,VALID,10,VALID,0.334766,
2010-05-18, 02:43:05,VALID,1002.79,VALID,0,VALID,96.4214,VALID,0,VALID,25.3565,VALID,10,VALID,0,
2010-05-18, 02:44:05,VALID,1002.83,VALID,0,VALID,96.4748,VALID,0,VALID,25.337,VALID,10,VALID,0,
2010-05-18, 02:45:05,VALID,1002.8,VALID,0,VALID,96.4977,VALID,0,VALID,25.2786,VALID,10,VALID,0,
2010-05-18, 02:46:05,VALID,1002.82,VALID,0,VALID,96.5282,VALID,0,VALID,25.3019,VALID,10,VALID,0,
2010-05-18, 02:47:05,VALID,1002.81,VALID,0,VALID,96.5664,VALID,0,VALID,25.2806,VALID,10,VALID,0,
2010-05-18, 02:48:05,VALID,1002.84,VALID,0,VALID,96.6045,VALID,0,VALID,25.2611,VALID,357,VALID,0.390234,
2010-05-18, 02:49:05,VALID,1002.84,VALID,0,VALID,96.6579,VALID,0,VALID,25.263,VALID,357,VALID,0,
2010-05-18, 02:50:05,VALID,1002.84,VALID,0,VALID,96.7037,VALID,0,VALID,25.263,VALID,357,VALID,0.00429688,
2010-05-18, 02:51:05,VALID,1002.87,VALID,0,VALID,96.7266,VALID,0,VALID,25.2435,VALID,357,VALID,0,
2010-05-18, 02:52:05,VALID,1002.86,VALID,0,VALID,96.7571,VALID,0,VALID,25.2221,VALID,357,VALID,0.185547,
2010-05-18, 02:53:05,VALID,1002.88,VALID,0,VALID,96.8105,VALID,0,VALID,25.2221,VALID,357,VALID,0,
2010-05-18, 02:54:05,VALID,1002.86,VALID,0,VALID,96.8334,VALID,0,VALID,25.2221,VALID,357,VALID,0.141016,
2010-05-18, 02:55:05,VALID,1002.9,VALID,0,VALID,96.841,VALID,0,VALID,25.224,VALID,357,VALID,0.213672,
2010-05-18, 02:56:05,VALID,1002.87,VALID,0,VALID,96.8639,VALID,0,VALID,25.224,VALID,357,VALID,0,
2010-05-18, 02:57:05,VALID,1002.86,VALID,0,VALID,96.8944,VALID,0,VALID,25.2027,VALID,357,VALID,0,
2010-05-18, 02:58:05,VALID,1002.88,VALID,0,VALID,96.902,VALID,0,VALID,25.1832,VALID,357,VALID,0,
2010-05-18, 02:59:05,VALID,1002.85,VALID,0,VALID,96.8944,VALID,0,VALID,25.1637,VALID,357,VALID,0,
2010-05-18, 03:00:05,VALID,1002.84,VALID,0,VALID,96.902,VALID,0,VALID,25.1442,VALID,2,VALID,0.661328,
2010-05-18, 03:01:05,VALID,1002.83,VALID,0,VALID,96.8868,VALID,0,VALID,25.1248,VALID,15,VALID,0.690234,
2010-05-18, 03:02:05,VALID,1002.82,VALID,0,VALID,96.9173,VALID,0,VALID,25.1053,VALID,20,VALID,0.689844,
2010-05-18, 03:03:05,VALID,1002.79,VALID,0,VALID,96.9249,VALID,0,VALID,25.1053,VALID,20,VALID,0.574609,
2010-05-18, 03:04:05,VALID,1002.79,VALID,0,VALID,96.9783,VALID,0,VALID,25.1248,VALID,24,VALID,0.527734,
2010-05-18, 03:05:05,VALID,1002.8,VALID,0,VALID,97.0165,VALID,0,VALID,25.1248,VALID,24,VALID,0.749609,
2010-05-18, 03:06:05,VALID,1002.8,VALID,0,VALID,97.0241,VALID,0,VALID,25.1248,VALID,24,VALID,0.492578,
2010-05-18, 03:07:05,VALID,1002.74,VALID,0,VALID,97.0851,VALID,0,VALID,25.1248,VALID,24,VALID,0.451562,
2010-05-18, 03:08:05,VALID,1002.76,VALID,0,VALID,97.0775,VALID,0,VALID,25.1248,VALID,24,VALID,0.354688,
2010-05-18, 03:09:05,VALID,1002.76,VALID,0,VALID,97.1004,VALID,0,VALID,25.1053,VALID,24,VALID,0.239844,
2010-05-18, 03:10:05,VALID,1002.75,VALID,0,VALID,97.1156,VALID,0,VALID,25.0663,VALID,24,VALID,0.138672,
2010-05-18, 03:11:05,VALID,1002.76,VALID,0,VALID,97.1233,VALID,0,VALID,25.0469,VALID,24,VALID,0.0015625,
2010-05-18, 03:12:05,VALID,1002.74,VALID,0,VALID,97.1309,VALID,0,VALID,25.0488,VALID,24,VALID,0.150391,
2010-05-18, 03:13:05,VALID,1002.75,VALID,0,VALID,97.1233,VALID,0,VALID,25.0274,VALID,24,VALID,0.256641,
2010-05-18, 03:14:05,VALID,1002.73,VALID,0,VALID,97.1233,VALID,0,VALID,25.0469,VALID,24,VALID,0.295312,
2010-05-18, 03:15:05,VALID,1002.74,VALID,0,VALID,97.1462,VALID,0,VALID,25.0488,VALID,24,VALID,0.0183594,
2010-05-18, 03:16:05,VALID,1002.78,VALID,0,VALID,97.1538,VALID,0,VALID,25.0274,VALID,24,VALID,0,
2010-05-18, 03:17:05,VALID,1002.75,VALID,0,VALID,97.1767,VALID,0,VALID,25.0488,VALID,24,VALID,0.2,
2010-05-18, 03:18:05,VALID,1002.75,VALID,0,VALID,97.1767,VALID,0,VALID,24.9885,VALID,24,VALID,0.134375,
2010-05-18, 03:19:05,VALID,1002.77,VALID,0,VALID,97.1843,VALID,0,VALID,24.9671,VALID,24,VALID,0,
2010-05-18, 03:20:05,VALID,1002.78,VALID,0,VALID,97.1843,VALID,0,VALID,24.9885,VALID,24,VALID,0,
2010-05-18, 03:21:05,VALID,1002.76,VALID,0,VALID,97.1843,VALID,0,VALID,24.969,VALID,24,VALID,0,
2010-05-18, 03:22:05,VALID,1002.76,VALID,0,VALID,97.1843,VALID,0,VALID,24.9885,VALID,24,VALID,0,
2010-05-18, 03:23:05,VALID,1002.72,VALID,0,VALID,97.1843,VALID,0,VALID,25.0079,VALID,24,VALID,0,
2010-05-18, 03:24:05,VALID,1002.7,VALID,0,VALID,97.1996,VALID,0,VALID,25.0255,VALID,24,VALID,0.213672,
2010-05-18, 03:25:05,VALID,1002.68,VALID,0,VALID,97.2225,VALID,0,VALID,25.0469,VALID,24,VALID,0.180078,
2010-05-18, 03:26:05,VALID,1002.7,VALID,0,VALID,97.2301,VALID,0,VALID,25.0663,VALID,24,VALID,0.186328,
2010-05-18, 03:27:05,VALID,1002.67,VALID,0,VALID,97.2835,VALID,0,VALID,25.0663,VALID,24,VALID,0.334375,
2010-05-18, 03:28:05,VALID,1002.68,VALID,0,VALID,97.2987,VALID,0,VALID,25.0274,VALID,24,VALID,0.180469,
2010-05-18, 03:29:05,VALID,1002.69,VALID,0,VALID,97.2682,VALID,0,VALID,24.9885,VALID,24,VALID,0.338281,
2010-05-18, 03:30:05,VALID,1002.69,VALID,0,VALID,97.2835,VALID,0,VALID,24.969,VALID,24,VALID,0.433594,
2010-05-18, 03:31:05,VALID,1002.71,VALID,0,VALID,97.2759,VALID,0,VALID,24.9495,VALID,24,VALID,0.403906,
2010-05-18, 03:32:04,VALID,1002.76,VALID,0,VALID,97.2759,VALID,0,VALID,24.93,VALID,24,VALID,0.495703,
2010-05-18, 03:33:04,VALID,1002.75,VALID,0,VALID,97.2835,VALID,0,VALID,24.8892,VALID,24,VALID,0.486719,
2010-05-18, 03:34:04,VALID,1002.76,VALID,0,VALID,97.2835,VALID,0,VALID,24.9106,VALID,22,VALID,0.428516,
2010-05-18, 03:35:04,VALID,1002.79,VALID,0,VALID,97.2835,VALID,0,VALID,24.8911,VALID,22,VALID,0.2625,
2010-05-18, 03:36:04,VALID,1002.78,VALID,0,VALID,97.2987,VALID,0,VALID,24.8308,VALID,22,VALID,0.347266,
2010-05-18, 03:37:04,VALID,1002.76,VALID,0,VALID,97.2987,VALID,0,VALID,24.8522,VALID,22,VALID,0.410156,
2010-05-18, 03:38:04,VALID,1002.75,VALID,0,VALID,97.2835,VALID,0,VALID,24.8522,VALID,22,VALID,0.506641,
2010-05-18, 03:39:04,VALID,1002.79,VALID,0,VALID,97.2835,VALID,0,VALID,24.8327,VALID,22,VALID,0.596094,
2010-05-18, 03:40:04,VALID,1002.8,VALID,0,VALID,97.2987,VALID,0,VALID,24.8522,VALID,22,VALID,0.55,
2010-05-18, 03:41:04,VALID,1002.8,VALID,0,VALID,97.3064,VALID,0,VALID,24.7919,VALID,21,VALID,0.332422,
2010-05-18, 03:42:04,VALID,1002.82,VALID,0,VALID,97.3064,VALID,0,VALID,24.8327,VALID,21,VALID,0.201562,
2010-05-18, 03:43:04,VALID,1002.83,VALID,0,VALID,97.3064,VALID,0,VALID,24.8113,VALID,21,VALID,0.0679687,
2010-05-18, 03:44:04,VALID,1002.81,VALID,0,VALID,97.3216,VALID,0,VALID,24.8522,VALID,21,VALID,0.00351562,
2010-05-18, 03:45:04,VALID,1002.85,VALID,0,VALID,97.3521,VALID,0,VALID,24.8327,VALID,21,VALID,0.401953,
2010-05-18, 03:46:04,VALID,1002.85,VALID,0,VALID,97.3598,VALID,0,VALID,24.7919,VALID,21,VALID,0.330078,